Weather reports worldwide

Advertisment
Pembrey Sands, United Kingdom (3605): temperature & dewpoint: 13.01.2019 09:00:00 - 19.01.2019 09:00:00 (GMT)Pembrey Sands, United Kingdom (3605): wind speed & gusts: 13.01.2019 09:00:00 - 19.01.2019 09:00:00 (GMT)Pembrey Sands, United Kingdom (3605): wind direction: 13.01.2019 09:00:00 - 19.01.2019 09:00:00 (GMT)Pembrey Sands, United Kingdom (3605): reduced air pressure: 13.01.2019 09:00:00 - 19.01.2019 09:00:00 (GMT)Pembrey Sands, United Kingdom (3605): visibility: 13.01.2019 09:00:00 - 19.01.2019 09:00:00 (GMT)Pembrey Sands, United Kingdom (3605): precipitation: 13.01.2019 09:00:00 - 19.01.2019 09:00:00 (GMT)
Date & Time tt [°C] td [°C] ff [km/h] ff [kn] fx [km/h] fx [kn] dd ppp [hPa] vv [km] rr [mm]
19.01.2019 09:00:00 - - - - - - - - - -
19.01.2019 08:00:00 - - - - - - - - - -
19.01.2019 07:00:00 - - - - - - - - - -
19.01.2019 06:00:00 - - - - - - - - - -
19.01.2019 05:00:00 - - - - - - - - - -
19.01.2019 04:00:00 - - - - - - - - - -
19.01.2019 03:00:00 - - - - - - - - - -
19.01.2019 02:00:00 - - - - - - - - - -
19.01.2019 01:00:00 - - - - - - - - - -
19.01.2019 00:00:00 - - - - - - - - - -
18.01.2019 23:00:00 - - - - - - - - - -
18.01.2019 22:00:00 - - - - - - - - - -
18.01.2019 21:00:00 - - - - - - - - - -
18.01.2019 20:00:00 - - - - - - - - - -
18.01.2019 19:00:00 - - - - - - - - - -
18.01.2019 18:00:00 - - - - - - - - - -
18.01.2019 17:00:00 - - - - - - - - - -
18.01.2019 16:00:00 - - - - - - - - - -
18.01.2019 15:00:00 - - - - - - - - - -
18.01.2019 14:00:00 - - - - - - - - - -
18.01.2019 13:00:00 - - - - - - - - - -
18.01.2019 12:00:00 - - - - - - - - - -
18.01.2019 11:00:00 - - - - - - - - - -
18.01.2019 10:00:00 - - - - - - - - - -
18.01.2019 09:00:00 - - - - - - - - - -
18.01.2019 08:00:00 - - - - - - - - - -
18.01.2019 07:00:00 - - - - - - - - - -
18.01.2019 06:00:00 - - - - - - - - - -
18.01.2019 05:00:00 - - - - - - - - - -
18.01.2019 04:00:00 - - - - - - - - - -
18.01.2019 03:00:00 - - - - - - - - - -
18.01.2019 02:00:00 - - - - - - - - - -
18.01.2019 01:00:00 - - - - - - - - - -
18.01.2019 00:00:00 - - - - - - - - - -
17.01.2019 23:00:00 - - - - - - - - - -
17.01.2019 22:00:00 - - - - - - - - - -
17.01.2019 21:00:00 - - - - - - - - - -
17.01.2019 20:00:00 - - - - - - - - - -
17.01.2019 19:00:00 - - - - - - - - - -
17.01.2019 18:00:00 - - - - - - - - - -
17.01.2019 17:00:00 - - - - - - - - - -
17.01.2019 16:00:00 - - - - - - - - - -
17.01.2019 15:00:00 - - - - - - - - - -
17.01.2019 14:00:00 - - - - - - - - - -
17.01.2019 13:00:00 - - - - - - - - - -
17.01.2019 12:00:00 - - - - - - - - - -
17.01.2019 11:00:00 - - - - - - - - - -
17.01.2019 10:00:00 - - - - - - - - - -
17.01.2019 09:00:00 - - - - - - - - - -
17.01.2019 08:00:00 - - - - - - - - - -
17.01.2019 07:00:00 - - - - - - - - - -
17.01.2019 06:00:00 - - - - - - - - - -
17.01.2019 05:00:00 - - - - - - - - - -
17.01.2019 04:00:00 - - - - - - - - - -
17.01.2019 03:00:00 - - - - - - - - - -
17.01.2019 02:00:00 - - - - - - - - - -
17.01.2019 01:00:00 - - - - - - - - - -
17.01.2019 00:00:00 - - - - - - - - - -
16.01.2019 23:00:00 - - - - - - - - - -
16.01.2019 22:00:00 - - - - - - - - - -
16.01.2019 21:00:00 - - - - - - - - - -
16.01.2019 20:00:00 - - - - - - - - - -
16.01.2019 19:00:00 - - - - - - - - - -
16.01.2019 18:00:00 - - - - - - - - - -
16.01.2019 17:00:00 - - - - - - - - - -
16.01.2019 16:00:00 - - - - - - - - - -
16.01.2019 15:00:00 - - - - - - - - - -
16.01.2019 14:00:00 - - - - - - - - - -
16.01.2019 13:00:00 - - - - - - - - - -
16.01.2019 12:00:00 - - - - - - - - - -
16.01.2019 11:00:00 6,4 5,2 26 14 - - NW 1005,1 12 0,8
16.01.2019 10:00:00 6,8 5,6 29 16 59 32 NW 1004,6 6 0,2
16.01.2019 09:00:00 9,5 8,2 34 18 - - SW 1003,7 10 0,0
16.01.2019 08:00:00 9,4 7,8 39 21 54 29 SW 1004,2 17 0,0
16.01.2019 07:00:00 9,4 8,3 39 21 52 28 SW 1005,1 8 0,0
16.01.2019 06:00:00 9,3 8,4 29 16 48 26 SW 1005,6 7 0,0
16.01.2019 05:00:00 9,4 8,5 35 19 54 29 SW 1006,5 10 0,2
16.01.2019 04:00:00 9,4 8,7 41 22 54 29 SW 1007,5 9 0,2
16.01.2019 03:00:00 9,3 8,8 46 25 61 33 SW 1008,6 2,2 0,6
16.01.2019 02:00:00 9,2 8,6 44 24 55 30 WSW 1009,5 5 0,8
16.01.2019 01:00:00 9,5 9,0 39 21 52 28 SSW 1010,4 7 0,2
16.01.2019 00:00:00 9,2 8,8 44 24 55 30 SSW 1011,3 6 0,8
15.01.2019 23:00:00 9,3 9,0 42 23 52 28 SSW 1012,1 2,0 0,2
15.01.2019 22:00:00 9,2 8,8 35 19 48 26 SSW 1012,9 2,5 0,2
15.01.2019 21:00:00 9,2 8,6 31 17 - - SSW 1013,7 14 0,0
15.01.2019 20:00:00 9,2 8,5 34 18 - - SSW 1014,5 17 0,0
15.01.2019 19:00:00 9,1 8,5 34 18 - - SW 1015,2 18 0,0
15.01.2019 18:00:00 8,8 8,1 31 17 - - SW 1015,8 6 0,2
15.01.2019 17:00:00 9,4 8,0 22 12 - - SSW 1016,3 18 0,0
15.01.2019 16:00:00 9,5 7,6 22 12 - - SW 1016,9 17 0,0
15.01.2019 15:00:00 9,8 7,5 31 17 - - SW 1017,6 18 0,0
15.01.2019 14:00:00 9,8 7,7 26 14 - - SW 1018,2 15 0,0
15.01.2019 13:00:00 9,5 8,2 35 19 - - SW 1019,1 15 0,0
15.01.2019 12:00:00 9,7 7,8 28 15 - - WSW 1019,9 17 0,0
15.01.2019 11:00:00 9,4 7,6 26 14 - - SW 1020,5 18 0,0
15.01.2019 10:00:00 9,0 7,5 16 9 - - WSW 1020,7 19 0,0
15.01.2019 09:00:00 8,4 7,6 16 9 - - W 1020,9 16 0,0
15.01.2019 08:00:00 8,2 7,6 18 10 - - W 1020,8 27 0,2
15.01.2019 07:00:00 8,6 8,0 22 12 - - W 1021,0 17 0,2
15.01.2019 06:00:00 8,7 7,8 18 10 - - SW 1021,2 7 0,0
15.01.2019 05:00:00 8,6 7,5 26 14 - - WSW 1021,8 21 0,0
15.01.2019 04:00:00 8,2 6,8 13 7 - - WSW 1022,3 19 0,0
15.01.2019 03:00:00 8,4 6,6 18 10 - - W 1023,0 17 0,0
15.01.2019 02:00:00 8,7 6,6 15 8 - - W 1023,4 19 0,0
15.01.2019 01:00:00 8,8 6,6 18 10 - - W 1023,8 17 0,0
15.01.2019 00:00:00 8,8 6,9 21 11 55 30 W 1024,2 13 0,0
14.01.2019 23:00:00 8,2 5,8 11 6 - - W 1024,6 12 0,0
14.01.2019 22:00:00 8,2 4,8 15 8 - - W 1024,7 19 0,0
14.01.2019 21:00:00 8,1 4,5 16 9 - - WSW 1024,7 19 0,0
14.01.2019 20:00:00 6,8 3,7 5 3 - - WSW 1024,9 20 0,0
14.01.2019 19:00:00 7,4 3,7 11 6 - - W 1025,0 21 0,0
14.01.2019 18:00:00 7,6 3,5 16 9 - - W 1024,9 22 0,0
14.01.2019 17:00:00 8,1 3,0 21 11 - - WNW 1024,9 23 0,0
14.01.2019 16:00:00 8,5 3,5 21 11 - - W 1025,0 23 0,0
14.01.2019 15:00:00 8,8 3,2 26 14 - - W 1024,7 21 0,0
14.01.2019 14:00:00 9,3 3,5 22 12 - - WNW 1024,5 21 0,0
14.01.2019 13:00:00 9,3 3,4 21 11 - - WNW 1024,8 20 0,0
14.01.2019 12:00:00 9,0 3,2 26 14 - - NW 1024,5 21 0,0
14.01.2019 11:00:00 8,8 3,1 21 11 - - NW 1024,6 21 0,0
14.01.2019 10:00:00 8,5 3,4 21 11 - - WNW 1024,1 16 0,0
14.01.2019 09:00:00 8,2 3,5 16 9 - - NW 1023,9 21 0,0
14.01.2019 08:00:00 8,2 3,2 22 12 - - NW 1023,3 22 0,0
14.01.2019 07:00:00 8,2 3,5 21 11 - - NW 1022,9 25 0,0
14.01.2019 06:00:00 7,4 4,0 21 11 - - NW 1022,5 22 0,0
14.01.2019 05:00:00 7,7 4,1 26 14 - - WNW 1021,9 20 0,0
14.01.2019 04:00:00 7,9 4,1 24 13 - - NW 1021,6 20 0,0
14.01.2019 03:00:00 8,3 3,2 26 14 - - NNW 1021,5 20 0,0
14.01.2019 02:00:00 8,7 3,7 22 12 - - NW 1020,9 19 0,0
14.01.2019 01:00:00 9,1 3,7 29 16 48 26 NW 1020,4 18 0,0
14.01.2019 00:00:00 9,1 3,6 34 18 48 26 NW 1020,1 16 0,0
13.01.2019 23:00:00 9,2 3,5 35 19 57 31 NW 1019,6 16 0,0
13.01.2019 22:00:00 9,2 2,7 37 20 50 27 NNW 1019,1 19 0,0
13.01.2019 21:00:00 10,0 4,9 28 15 52 28 NNW 1018,5 19 0,0
13.01.2019 20:00:00 10,4 6,6 29 16 46 25 WNW 1017,9 23 0,0
13.01.2019 19:00:00 10,2 6,9 29 16 - - WNW 1017,5 30 0,0
13.01.2019 18:00:00 10,5 8,3 26 14 - - W 1017,2 35 0,0
13.01.2019 17:00:00 10,8 8,2 29 16 48 26 W 1017,1 30 0,0
13.01.2019 16:00:00 11,2 8,4 35 19 55 30 WNW 1017,3 30 0,0
13.01.2019 15:00:00 11,2 8,3 34 18 52 28 WNW 1017,3 30 0,0
13.01.2019 14:00:00 10,6 8,2 37 20 55 30 W 1017,4 14 0,0
13.01.2019 13:00:00 10,6 8,1 44 24 59 32 W 1017,9 15 0,0
13.01.2019 12:00:00 10,6 8,0 41 22 54 29 WNW 1018,2 12 0,0
13.01.2019 11:00:00 10,0 7,9 37 20 50 27 W 1019,1 10 0,0
13.01.2019 10:00:00 9,7 7,7 34 18 46 25 W 1019,3 11 0,0
13.01.2019 09:00:00 9,4 7,6 26 14 - - W 1019,6 10 0,0

tt = temperature
td = dewpoint
ff = wind speed
fx = gusts
dd = wind direction
ppp = reduced air pressure
vv = visibility
rr = precipitation

Next stations